Tracking 18984 objects as of 24-Feb-2018
HD Live streaming from Space Station
objects crossing your sky now

PICOSAT 4

Track PICOSAT 4 now!
10-day predictions
PICOSAT 4 is classified as:


NORAD ID: 26092
Int'l Code: 2000-004K
Perigee: 730.2 km
Apogee: 778.8 km
Inclination: 100.2 °
Period: 99.8 minutes
Semi major axis: 7125 km
RCS: 0.039 m2 (small)
Launch date: January 27, 2000
Source: United States (US)
Launch site: AIR FORCE WESTERN TEST RANGE (AFWTR)
aabbcc
Your satellite tracking list
Your tracking list is empty




NASA's NSSDC Master Catalog

Two Line Element Set (TLE):
1 26092U 00004K   18054.32278480  .00000099  00000-0  46740-4 0  9998
2 26092 100.1764 156.6410 0034136 180.8970 179.2158 14.43375697947948
Source of the keplerian elements: AFSPC